This is the latest recevied weather packets stored in our database for station/object MIDVIL-WX. If no packets are shown the sender has not sent any weather packets the latest 1 day(s).
| Time | Temp. | Humidity | Pressure | Rain* | Wind** | Luminosity | Snow |
|---|---|---|---|---|---|---|---|
| 1778013925 | 12.22° C | 38% | 983.4 hPa | 0 mm | 6.26 m/s, 279° | - | - |
| 1778013046 | 12.22° C | 36% | 982.5 hPa | 0 mm | 6.26 m/s, 276° | - | - |
| 1778012125 | 12.22° C | 36% | 982.5 hPa | 0 mm | 6.71 m/s, 276° | - | - |
| 1778011253 | 12.22° C | 36% | 982.5 hPa | 0 mm | 6.71 m/s, 274° | - | - |
| 1778010325 | 12.22° C | 34% | 982.4 hPa | 0 mm | 6.26 m/s, 271° | - | - |
| 1778009442 | 12.78° C | 34% | 982.4 hPa | 0 mm | 6.71 m/s, 273° | - | - |
| 1778008528 | 12.78° C | 34% | 982.4 hPa | 0 mm | 6.26 m/s, 268° | - | - |
| 1778007651 | 12.78° C | 34% | 982.4 hPa | 0 mm | 6.26 m/s, 269° | - | - |
| 1778006728 | 12.78° C | 36% | 983 hPa | 0 mm | 6.26 m/s, 265° | - | - |
| 1778005850 | 12.78° C | 37% | 982.3 hPa | 0 mm | 6.71 m/s, 272° | - | - |
| 1778004928 | 12.78° C | 37% | 982.3 hPa | 0 mm | 6.26 m/s, 274° | - | - |
| 1778004056 | 13.33° C | 37% | 982.3 hPa | 0 mm | 5.81 m/s, 268° | - | - |
| 1778003127 | 12.78° C | 33% | 981.6 hPa | 0 mm | 6.26 m/s, 268° | - | - |
| 1778002243 | 12.78° C | 35% | 980.7 hPa | 0 mm | 5.81 m/s, 272° | - | - |
| 1778001328 | 12.22° C | 35% | 980.7 hPa | 0 mm | 5.81 m/s, 275° | - | - |
| 1778000454 | 12.22° C | 35% | 980.7 hPa | 0 mm | 5.81 m/s, 278° | - | - |
| 1777999528 | 11.67° C | 41% | 981.6 hPa | 0 mm | 5.81 m/s, 286° | - | - |
| 1777998647 | 11.67° C | 43% | 979.8 hPa | 0 mm | 5.81 m/s, 283° | - | - |
| 1777997728 | 11.67° C | 43% | 979.8 hPa | 0 mm | 5.36 m/s, 270° | - | - |
| 1777996858 | 11.11° C | 43% | 979.8 hPa | 0 mm | 4.92 m/s, 269° | - | - |
| 1777995925 | 11.11° C | 45% | 981.6 hPa | 0 mm | 4.92 m/s, 266° | - | - |
| 1777995049 | 10.56° C | 43% | 980.6 hPa | 0 mm | 5.81 m/s, 272° | - | - |
| 1777994128 | 10.56° C | 43% | 980.5 hPa | 0 mm | 5.81 m/s, 279° | - | - |
| 1777993261 | 10.56° C | 43% | 980.5 hPa | 0 mm | 6.26 m/s, 278° | - | - |
| 1777992328 | 10.56° C | 58% | 980.6 hPa | 0 mm | 5.81 m/s, 278° | - | - |
* Rain latest hour (hover to see other rain measurements)
** Current wind speed in m/s (hover to see current wind gust speed)